www.pogodaiklimat.ru

Погода и климат >> Архив погоды >> Великобритания >> Скемптон


ПОГОДА в Скемптоне

  • Прогноз погоды в Скемптоне
  • Монитор погоды в Скемптоне

АРХИВ ПОГОДЫ в Скемптоне

Время (UTC), дата Ветер
(напр.,м/с)
 
Видим.   Явления Облачность Т
(С)
Тd
(С)
f
(%)
Тe
(С)
Тes
(С)
Комфортность P
(гПа)
Po
(гПа)
Тmin
(С)
Tmax
(С)
R
(мм)
R24
(мм)
S
(см)
16 11.09 З 9
{13}
30 км н/о +18.7 +9.7 56 +18 +18 1017.6 1010.8
17 11.09 З 7 30 км н/о +17.6 +9.3 58 +17 +17 1018.5 1011.7
18 11.09 З 6 30 км н/о +16.3 +9.3 63 +15 +15 1019.0 1012.2 +20.1 2
19 11.09 З 5 30 км н/о +15.1 +9.1 67 +14 +14 1020.0 1013.1
20 11.09 З 4 30 км н/о +12.5 +8.8 78 +11 +11 1020.3 1013.4
21 11.09 З 4 27 км н/о +13.2 +10.0 81 +12 +12 1020.9 1014.0
22 11.09 З 3 25 км н/о +12.0 +9.3 84 +11 +11 1021.3 1014.3
23 11.09 ЮЗ 4 24 км н/о +12.0 +9.8 86 +10 +10 1021.6 1014.6
00 12.09 Ю 3 29 км н/о +12.8 +10.0 83 +11 +11 1021.7 1014.8 0.2
01 12.09 ЮЗ 3 22 км н/о +12.2 +9.9 86 +11 +11 1022.2 1015.3
02 12.09 ЮЗ 3 21 км н/о +11.8 +10.1 89 +10 +10 1022.7 1015.7
03 12.09 ЮЗ 4 21 км н/о +12.0 +10.6 91 +10 +10 1022.5 1015.6
04 12.09 ЮЗ 4 20 км н/о +11.4 +10.2 92 +9 +9 1022.4 1015.4
05 12.09 ЮЗ 4 21 км н/о +11.7 +10.5 92 +9 +9 1022.5 1015.5
06 12.09 ЮЗ 5 19 км н/о +11.4 +10.5 94 +9 +9 1023.2 1016.2 +11.3
07 12.09 ЮЗ 5 21 км н/о +13.2 +11.9 92 +11 +11 1023.4 1016.5
08 12.09 ЮЗ 5 22 км н/о +14.2 +12.2 88 +12 +12 1023.8 1016.9
09 12.09 ЮЗ 7 21 км н/о +16.4 +13.0 80 +15 +15 1023.7 1016.8
10 12.09 ЮЗ 8 24 км н/о +18.1 +13.6 75 +17 +17 1023.8 1017.0
11 12.09 ЮЗ 9
{13}
30 км н/о +19.4 +14.1 71 +20 +20 1023.6 1016.8
12 12.09 ЮЗ 10
{13}
35 км н/о +20.3 +14.6 70 +22 +22 комфорт 1022.9 1016.1
13 12.09 ЮЗ 9
{15}
35 км н/о +20.3 +14.9 71 +22 +22 комфорт 1023.0 1016.2
14 12.09 ЮЗ 9
{14}
35 км н/о +22.6 +16.4 68 +27 +27 душно 1022.6 1015.9
15 12.09 ЮЗ 11
{15}
40 км н/о +21.6 +15.5 68 +25 +25 комфорт 1022.3 1015.5
16 12.09 ЮЗ 10
{15}
50 км н/о +21.9 +15.4 67 +26 +26 душно 1022.1 1015.4
17 12.09 З 11
{16}
35 км н/о +20.9 +13.1 61 +23 +23 комфорт 1022.7 1015.9
18 12.09 ЮЗ 9
{13}
30 км н/о +20.0 +13.0 64 +21 +21 комфорт 1023.3 1016.6 +23.4
19 12.09 З 8 29 км н/о +19.2 +13.7 70 +20 +20 1023.9 1017.2
20 12.09 ЮЗ 7 25 км н/о +18.1 +14.8 81 +18 +18 1024.8 1017.9
21 12.09 З 6 9000 м н/о +17.1 +15.7 91 +16 +16 1025.6 1018.8
22 12.09 СЗ 7 35 км н/о +16.3 +14.1 87 +15 +15 1026.7 1019.8
23 12.09 СЗ 6 35 км н/о +14.8 +12.9 88 +13 +13 1027.6 1020.7
00 13.09 З 4 20 км н/о +13.0 +11.8 92 +11 +11 1028.7 1021.7 0.2
01 13.09 СЗ 4 35 км н/о +12.9 +10.3 84 +11 +11 1029.5 1022.5
02 13.09 СЗ 4 35 км н/о +10.8 +7.6 81 +8 +8 1030.3 1023.3
03 13.09 СЗ 4 45 км н/о +9.5 +7.0 84 +7 +7 1031.2 1024.2
04 13.09 СЗ 3 35 км н/о +8.0 +5.8 86 +5 +5 1031.8 1024.7
05 13.09 СЗ 5 15 км н/о +8.8 +8.5 98 +5 +5 1032.2 1025.1
06 13.09 СЗ 5 15 км н/о +8.2 +7.9 98 +4 +4 1033.0 1025.9 +7.3 0.2
07 13.09 З 3 17 км н/о +8.8 +8.4 97 +6 +6 1033.9 1026.8
08 13.09 СЗ 4 26 км н/о +11.2 +9.1 87 +9 +9 1034.9 1027.8
09 13.09 СЗ 3 30 км н/о +13.2 +7.9 70 +12 +12 1035.4 1028.4
10 13.09 СЗ 3 29 км н/о +14.8 +7.4 61 +14 +14 1035.5 1028.6
11 13.09 СЗ 4 30 км н/о +16.5 +7.3 54 +16 +16 1035.6 1028.7
12 13.09 СЗ 4 35 км н/о +17.0 +5.7 47 +17 +17 1035.7 1028.8
13 13.09 СЗ 4 30 км н/о +17.5 +5.3 45 +17 +17 1035.5 1028.6
14 13.09 СЗ 5 30 км н/о +18.3 +6.5 46 +18 +18 1035.5 1028.6
15 13.09 СЗ 3 28 км н/о +18.3 +6.1 45 +19 +19 1035.4 1028.5
16 13.09 СЗ 5 30 км н/о +18.1 +6.3 46 +18 +18 1035.4 1028.5
17 13.09 СЗ 4 30 км н/о +17.3 +5.4 45 +17 +17 1035.2 1028.3
18 13.09 СЗ 2 30 км н/о +16.1 +5.3 49 +16 +16 1035.6 1028.7 +19.0
19 13.09 С 3 29 км н/о +12.5 +5.1 61 +11 +11 1035.7 1028.7
20 13.09 ЮВ 3 26 км н/о +13.0 +8.6 75 +12 +12 1036.6 1029.6
21 13.09 ЮВ 2 25 км н/о +11.5 +8.3 81 +10 +10 1036.6 1029.5
22 13.09 ЮВ 1 20 км н/о +8.9 +6.8 87 +8 +8 1036.6 1029.5
23 13.09 ЮВ 1 20 км н/о +8.7 +6.8 88 +8 +8 1036.5 1029.3
00 14.09 Ю 2 21 км н/о +9.5 +8.3 92 +8 +8 1036.2 1029.1
01 14.09 ЮВ 2 17 км н/о +7.8 +6.6 92 +6 +6 1036.1 1029.0
02 14.09 ЮВ 2 15 км н/о +8.5 +7.9 96 +7 +7 1035.8 1028.7
03 14.09 ЮВ 1 13 км н/о +7.8 +7.0 95 +7 +7 1035.5 1028.3
04 14.09 Ю 2 18 км н/о +8.6 +8.3 98 +6 +6 1034.9 1027.8
05 14.09 Ю 2 15 км н/о +8.3 +7.9 97 +7 +7 1034.5 1027.4
06 14.09 Ю 2 16 км н/о +7.7 +7.4 98 +6 +6 1034.2 1027.0 +7.0
07 14.09 ЮЗ 4 19 км н/о +9.5 +7.7 89 +7 +7 1033.9 1026.8
08 14.09 ЮЗ 4 20 км н/о +11.2 +8.7 85 +9 +9 1034.0 1027.0
09 14.09 ЮЗ 5 25 км н/о +13.8 +9.0 73 +12 +12 1033.7 1026.7
10 14.09 ЮЗ 6 30 км н/о +16.3 +7.8 57 +15 +15 1033.2 1026.3
11 14.09 ЮЗ 7 30 км н/о +17.3 +9.0 58 +16 +16 1032.8 1025.9
12 14.09 ЮЗ 6 30 км н/о +18.2 +7.5 50 +18 +18 1031.4 1024.6
13 14.09 ЮЗ 7 30 км н/о +19.7 +7.8 46 +20 +20 1030.7 1023.9
14 14.09 ЮЗ 7 30 км н/о +19.5 +8.2 48 +20 +20 1029.7 1022.8
15 14.09 ЮЗ 6 30 км н/о +18.9 +8.0 49 +19 +19 1028.6 1021.8
16 14.09 ЮЗ 7 30 км н/о +20.0 +8.3 47 +21 +21 комфорт 1027.9 1021.1
17 14.09 ЮЗ 6 35 км н/о +19.5 +8.3 48 +20 +20 1027.1 1020.3
18 14.09 ЮЗ 5 30 км н/о +17.1 +7.8 54 +17 +17 1026.8 1019.9 +20.7
19 14.09 ЮЗ 4 30 км н/о +15.9 +8.1 60 +15 +15 1026.5 1019.6
20 14.09 ЮЗ 5 30 км н/о +16.1 +8.0 59 +15 +15 1026.1 1019.3
21 14.09 ЮЗ 7 30 км н/о +15.2 +8.3 63 +14 +14 1025.3 1018.4
22 14.09 ЮЗ 6 30 км н/о +14.9 +8.9 67 +13 +13 1025.0 1018.1
23 14.09 ЮЗ 6 25 км н/о +14.1 +9.4 73 +12 +12 1024.5 1017.5
00 15.09 ЮЗ 7 4600 м н/о +13.6 +10.6 82 +11 +11 1024.1 1017.2 10
01 15.09 ЮЗ 5 19 км н/о +13.1 +10.9 86 +11 +11 1023.3 1016.4
02 15.09 ЮЗ 7 21 км н/о +13.1 +10.8 86 +10 +10 1023.0 1016.0
03 15.09 ЮЗ 6 19 км н/о +12.6 +10.6 88 +10 +10 1022.3 1015.4
04 15.09 ЮЗ 6 21 км н/о +12.6 +10.5 87 +10 +10 1022.2 1015.2
05 15.09 З 5 22 км н/о +12.2 +10.3 88 +10 +10 1022.0 1015.0
06 15.09 ЮЗ 7 19 км н/о +11.9 +10.4 91 +9 +9 1021.9 1014.9 +11.8
07 15.09 ЮЗ 5 23 км н/о +12.8 +11.0 89 +11 +11 1022.1 1015.2
08 15.09 З 4 28 км н/о +14.8 +12.4 86 +14 +14 1022.6 1015.7
09 15.09 З 5 30 км н/о +16.2 +13.0 81 +15 +15 1022.8 1015.9
10 15.09 ЮЗ 5 30 км н/о +16.5 +13.5 82 +16 +16 1023.0 1016.1
11 15.09 СЗ 3 35 км н/о +17.5 +14.2 81 +18 +18 1023.1 1016.3
12 15.09 СЗ 7 35 км н/о +19.1 +13.4 70 +20 +20 1022.8 1016.0
13 15.09 СЗ 6 40 км н/о +19.0 +12.1 64 +20 +20 1022.9 1016.1
14 15.09 СЗ 7 40 км н/о +18.4 +11.9 66 +18 +18 1023.0 1016.2
15 15.09 СЗ 6 30 км н/о +17.0 +10.6 66 +16 +16 1023.0 1016.2
16 15.09 СЗ 4 27 км н/о +16.5 +11.0 70 +16 +16 1023.0 1016.1
17 15.09 С 2 23 км н/о +15.1 +11.8 81 +15 +15 1022.7 1015.9
18 15.09 С 2 17 км н/о +14.7 +12.5 87 +15 +15 1022.7 1015.8 +20.0
19 15.09 С 2 4500 м н/о +13.6 +12.5 93 +13 +13 1022.9 1016.0
20 15.09 СВ 2 3500 м н/о +13.1 +12.6 97 +13 +13 1022.7 1015.8
21 15.09 В 3 2400 м н/о +12.5 +12.2 98 +11 +11 1022.7 1015.8
22 15.09 СВ 3 4500 м н/о +11.5 +11.3 99 +9 +9 1022.8 1015.9
23 15.09 В 2 4100 м н/о +11.5 +11.4 99 +11 +11 1022.6 1015.6
00 16.09 В 2 4600 м н/о +11.5 +11.4 99 +11 +11 1022.3 1015.3 10
01 16.09 В 2 2800 м н/о +11.5 +11.4 99 +11 +11 1022.1 1015.1
02 16.09 СВ 1 5000 м н/о +11.5 +11.4 99 +12 +12 1021.9 1015.0
03 16.09 СВ 1 5000 м н/о +11.7 +11.6 99 +11 +11 1021.5 1014.5
04 16.09 С 2 4400 м н/о +11.8 +11.7 99 +11 +11 1021.2 1014.3
05 16.09 С 3 3400 м н/о +11.6 +11.6 100 +10 +10 1021.1 1014.2
06 16.09 СЗ 2 6000 м н/о +11.4 +11.3 99 +10 +10 1021.3 1014.4 +11.2 13
07 16.09 С 2 6000 м н/о +11.4 +11.3 99 +10 +10 1021.6 1014.6
08 16.09 С 2 9000 м н/о +11.6 +11.4 99 +10 +10 1022.0 1015.0
09 16.09 С 3 12 км н/о +12.4 +11.0 91 +11 +11 1022.4 1015.4
10 16.09 С 3 16 км н/о +13.2 +10.8 85 +12 +12 1022.6 1015.7
11 16.09 СЗ 2 18 км н/о +13.7 +9.1 74 +13 +13 1022.7 1015.8
12 16.09 С 3 24 км н/о +15.0 +9.1 68 +15 +15 1022.4 1015.5
13 16.09 СЗ 3 30 км н/о +15.5 +8.7 64 +15 +15 1022.5 1015.7
14 16.09 С 3 29 км н/о +15.6 +8.2 61 +15 +15 1022.5 1015.6
15 16.09 З 3 30 км н/о +15.9 +8.0 59 +16 +16 1022.3 1015.4
16 16.09 З 3 28 км н/о +16.0 +8.4 61 +16 +16 1022.2 1015.3
17 16.09 З 2 27 км н/о +15.7 +9.1 65 +16 +16 1022.2 1015.3
18 16.09 ЮЗ 2 25 км н/о +14.5 +9.0 70 +15 +15 1022.0 1015.1 +16.3
19 16.09 ЮЗ 2 21 км н/о +12.2 +8.4 78 +12 +12 1022.5 1015.5
20 16.09 З 3 21 км н/о +11.4 +8.7 83 +10 +10 1023.0 1016.0
21 16.09 З 3 30 км н/о +10.7 +8.4 86 +9 +9 1023.0 1016.0
22 16.09 СЗ 4 29 км н/о +9.7 +7.9 89 +7 +7 1023.2 1016.1
23 16.09 СЗ 4 25 км н/о +9.4 +8.2 92 +7 +7 1023.0 1016.0
00 17.09 СЗ 3 19 км н/о +8.4 +7.2 92 +6 +6 1023.2 1016.2
01 17.09 СЗ 4 20 км н/о +8.1 +7.5 96 +5 +5 1023.2 1016.2
02 17.09 З 3 15 км н/о +7.7 +7.2 97 +5 +5 1023.6 1016.5
03 17.09 З 3 14 км н/о +6.5 +6.0 97 +3 +3 1023.6 1016.5
04 17.09 СЗ 4 16 км н/о +6.3 +5.8 97 +3 +3 1023.2 1016.1
05 17.09 З 4 17 км н/о +6.6 +6.0 96 +3 +3 1023.4 1016.3
06 17.09 З 4 21 км н/о +6.4 +5.8 96 +2 +2 1023.9 1016.8 +6.0
07 17.09 З 4 17 км н/о +7.4 +6.5 94 +4 +4 1024.2 1017.2
08 17.09 СЗ 3 19 км н/о +9.4 +7.9 90 +7 +7 1024.7 1017.7
09 17.09 СЗ 6 30 км н/о +11.4 +8.3 81 +9 +9 1025.1 1018.1
10 17.09 С 7 35 км н/о +13.7 +8.1 69 +11 +11 1025.1 1018.1
11 17.09 С 5 35 км н/о +14.9 +8.0 63 +14 +14 1025.6 1018.7
12 17.09 С 5 35 км н/о +15.6 +7.1 57 +14 +14 1025.7 1018.8
13 17.09 С 5 35 км н/о +16.7 +7.0 53 +16 +16 1025.9 1019.0
14 17.09 С 5 35 км н/о +16.1 +4.2 45 +15 +15 1026.1 1019.3
15 17.09 С 4 35 км н/о +16.2 +3.8 44 +16 +16 1026.2 1019.3
16 17.09 СВ 5 40 км н/о +15.8 +3.5 44 +15 +15 1026.3 1019.4
17 17.09 СВ 4 35 км н/о +14.4 +5.2 54 +13 +13 1026.7 1019.8
18 17.09 В 5 35 км н/о +11.9 +5.0 63 +10 +10 1027.0 1020.0 +16.8
19 17.09 В 3 30 км н/о +10.2 +5.5 73 +8 +8 1027.7 1020.7
20 17.09 В 3 30 км н/о +9.0 +5.4 78 +7 +7 1028.2 1021.1
21 17.09 В 2 30 км н/о +8.6 +4.9 78 +7 +7 1028.7 1021.6
22 17.09 ЮЗ 2 30 км н/о +6.0 +3.0 81 +4 +4 1029.1 1022.0
23 17.09 СЗ 3 30 км н/о +7.3 +5.6 89 +4 +4 1029.3 1022.2
00 18.09 СЗ 3 29 км н/о +6.2 +4.4 88 +3 +3 1029.4 1022.3
01 18.09 СЗ 3 18 км н/о +6.3 +4.6 89 +3 +3 1029.3 1022.1
02 18.09 СЗ 3 24 км н/о +5.8 +4.4 91 +3 +3 1029.3 1022.2
03 18.09 СЗ 3 25 км н/о +6.5 +4.8 89 +4 +4 1029.3 1022.2
04 18.09 З 1 25 км н/о +6.0 +4.6 91 +5 +5 1029.3 1022.1
05 18.09 СЗ 2 19 км н/о +5.0 +4.0 93 +3 +3 1029.4 1022.2
06 18.09 З 2 16 км н/о +4.6 +3.5 93 +2 +2 1029.6 1022.4 +4.3
07 18.09 З 2 12 км н/о +6.2 +6.0 99 +4 +4 1030.1 1023.0
08 18.09 ЮЗ 2 16 км н/о +8.8 +7.1 89 +7 +7 1030.3 1023.3
09 18.09 ЮЗ 3 23 км н/о +11.9 +7.3 73 +10 +10 1030.4 1023.3
10 18.09 З 3 25 км н/о +13.3 +7.6 68 +12 +12 1030.2 1023.3
11 18.09 З 3 23 км н/о +14.9 +8.6 66 +14 +14 1030.1 1023.2
12 18.09 З 3 24 км н/о +15.2 +7.7 61 +15 +15 1030.0 1023.1
13 18.09 З 3 26 км н/о +15.4 +8.0 61 +15 +15 1029.8 1022.9
14 18.09 СЗ 3 25 км н/о +16.0 +7.3 56 +16 +16 1029.5 1022.6
15 18.09 СЗ 3 30 км н/о +16.4 +5.9 50 +16 +16 1029.2 1022.4
16 18.09 СЗ 4 30 км н/о +16.2 +5.9 50 +16 +16 1029.0 1022.1

 

Местоположение метеостанции Скемптон (Великобритания): широта 53.30 долгота -0.55 высота над уровнем моря 57 м.

В архиве по умолчанию представлена погода в Скемптоне за последнюю неделю. Архивные данные за месяц целиком и за предыдущие месяцы, начиная с января 2011 года, Вы можете получить, выбрав интересующий диапазон дат из раскрывающегося списка и нажав кнопку "Ввод!".


*Определитесь, кто Вы:
робот инопланетянин человек

Внимание! Время в таблицах - всемирное. Для получения местного времени необходимо прибавить поправку, которая равна 0 ч.

Смотрите также архив погоды в соседних городах и на ближайших метеорологических станциях:

Погода в Уоддингтоне (Великобритания) (15 км)
Погода в Крануэлле (Великобритания) (30 км)
Погода на Авиабазе Coningsby (Великобритания) (35 км)
Погода в Донна Нук (Великобритания) (46 км)
Погода в Ноттингеме (Великобритания) (57 км)
Погода в Уэйнфлите (Великобритания) (60 км)
Погода в Леконфилде (Великобритания) (64 км)
Погода в Холбиче (Великобритания) (67 км)
Погода в Виттеринге (Великобритания) (76 км)
Погода в Лидс-Брэдфорд (Великобритания) (81 км)

Пояснения к столбцам:

Ветер - указаны скорость ветра в м/с - средняя за 10 мин, порывы в срок и между сроками (в фигурных скобках) и направление, откуда дует ветер: С - северный, СВ - северо-восточный, В - восточный, ЮВ - юго-восточный, Ю - южный, ЮЗ - юго-западный, З - западный, СЗ - северо-западный.
Видимость - горизонтальная дальность видимости в метрах или километрах. При видимости от 1 до 10 км при отсутствии осадков обычно наблюдается дымка, при ухудшении видимости до 1 км и менее - туман. В сухую погоду видимость может ухудшаться дымом, пылью или мглою.
Явления - указаны атмосферные явления, наблюдавшиеся в срок или в последний час перед сроком; фигурными скобками обозначены явления, наблюдавшиеся между сроками (за 1-3 часа до срока); квадратными скобками обозначены град или гололедные отложения с указанием их диаметра в мм.
Облачность - указаны через наклонную черту общая и нижняя облачность в баллах и высота нижней границы облаков в метрах; квадратными скобками обозначены формы облаков: Ci - перистые, Cs - перисто-слоистые, Cc - перисто-кучевые, Ac - высококучевые, As - высокослоистые, Sc - слоисто-кучевые, Ns - слоисто-дождевые, Cu - кучевые, Cb - кучево-дождевые. Подробнее классификацию облаков см. в Атласе облаков (PDF).
T - Температура воздуха - температура, измеренная на высоте 2 м над землей.
Td - Температура точки росы - температура, при понижении до которой содержащийся в воздухе водяной пар достигнет насыщения.
f - Относительная влажность воздуха - влажноcть воздуха, измеренная на высоте 2 м над землей.
Te - Эффективная температура - температура, которую ощущает одетый по сезону человек в тени. Характеристика душности погоды. При расчете учитывается влияние влажности воздуха и скорости ветра на теплоощущения человека.
Tes - Эффективная температура на солнце - температура, которую ощущает человек, с поправкой на солнечный нагрев. Характеристика знойности погоды. Зависит от высоты солнца над горизонтом, облачности и скорости ветра. Ночью, в пасмурную погоду, а также при ветре 12 м/с и более поправка равна нулю.
P - Атмосферное давление - приведенное к уровню моря атмосферное давление.
Po - Атмосферное давление - измеренное на уровне метеостанции атмосферное давление.
Tmin - Минимальная температура - минимум температуры воздуха на высоте 2 м над землей.
Tmax - Максимальная температура - максимум температуры воздуха на высоте 2 м над землей.
R - Количество осадков - Количество выпавших осадков за период времени, мм. При наведении курсора мыши на число - период времени, за который выпало указанное количество осадков.
R24 - Количество осадков - Количество выпавших осадков за 24 часа, мм.
S - Снежный покров - Высота снежного покрова, см. При наведении курсора мыши на число - состояние снежного покрова и степень покрытия местности в баллах.